Location: Grevenbroich
(51.0902°N, 6.5859°E)
Time: 02:01:52
(UTC+01:00)

ISS - Visible Passes

Search period start: 17 January 2021 00:00
Search period end: 27 January 2021 00:00
Orbit: 418 x 419 km, 51.6° (Epoch: 17 January)

Date Brightness Start Highest point End Pass type
(mag) Time Alt. Az. Time Alt. Az. Time Alt. Az.
19 Jan -1.4 19:29:24 10° SSW 19:30:29 17° S 19:30:29 17° S visible
20 Jan -1.9 18:42:18 10° S 18:44:37 18° SE 18:44:55 17° SE visible
20 Jan -0.5 20:17:38 10° WSW 20:17:53 12° WSW 20:17:53 12° WSW visible
21 Jan -1.4 17:55:43 10° SSE 17:57:05 12° SE 17:58:27 10° ESE visible
21 Jan -2.4 19:30:00 10° SW 19:32:14 34° SSW 19:32:14 34° SSW visible
22 Jan -2.8 18:42:28 10° SW 18:45:33 34° SSE 18:46:31 28° ESE visible
22 Jan -0.7 20:18:47 10° W 20:19:28 15° W 20:19:28 15° W visible
23 Jan -2.2 17:55:06 10° SSW 17:57:53 25° SE 18:00:42 10° E visible
23 Jan -3.1 19:31:00 10° WSW 19:33:42 54° WSW 19:33:42 54° WSW visible
24 Jan -3.6 18:43:15 10° WSW 18:46:35 62° SSE 18:47:54 33° E visible
24 Jan -0.7 20:20:01 10° W 20:20:50 17° W 20:20:50 17° W visible
25 Jan -3.1 17:55:35 10° SW 17:58:49 46° SSE 18:02:03 10° E visible
25 Jan -3.3 19:32:10 10° W 19:35:00 59° W 19:35:00 59° W visible
26 Jan -3.8 18:44:19 10° W 18:47:42 89° NNW 18:49:08 32° E visible
26 Jan -0.8 20:21:11 10° W 20:22:04 17° W 20:22:04 17° W visible
